Location: Borgo
(42.3939°N, 9.2791°E)
Time: 22:51:59
(UTC+00:00)

Resurs 01 Rocket - Pass Details

Date: 27 February 2020
Orbit: 634 x 645 km, 98.0° (Epoch: 05 April)

Event Time Altitude Azimuth Distance (km) Brightness Sun altitude
Exits shadow 19:11:22 17° 19° (NNE) 1,645 3.6 -23.2°
Drops below altitude 10° 19:12:34 10° 9° (N) 2,041 4.2 -23.4°
Sets 19:14:59 0° 358° (N) 2,953 5.2 -23.9°
